Weather History for Mitchell, SD

Change the Weather History Date:

Sunday, July 21, 2013

  Actual Average Record
Temperature  
Mean Temperature 73 °F 75 °F  
Max Temperature 84 °F 87 °F 114 °F (1934)
Min Temperature 61 °F 63 °F 44 °F (1947)
Degree Days  
Heating Degree Days 0 0  
Month to date heating degree days 0 0  
Since 1 June heating degree days 50 35  
Since 1 July heating degree days 0 0  
Cooling Degree Days 8 10  
Month to date cooling degree days 255 208  
Year to date cooling degree days 479 418  
Since 1 June cooling degree days 422 378  
Growing Degree Days 22 (Base 50)    
Moisture  
Dew Point 64 °F    
Average Humidity 76    
Maximum Humidity 93    
Minimum Humidity 58    
Precipitation  
Precipitation 0.01 in 0.09 in 3.69 in (2010)
Month to date precipitation 3.77 2.16  
Year to date precipitation 15.86 13.02  
Snow  
Snow 0.00 in - 0.00 in ()
Month to date snowfall 0.0  
Since 1 June snowfall 0.0  
Since 1 July snowfall 0.0  
Snow Depth 0.00 in    
Sea Level Pressure  
Sea Level Pressure 29.83 in    
Wind  
Wind Speed 5 mph (SSE)    
Max Wind Speed 25 mph    
Max Gust Speed 31 mph    
Visibility 10 miles    
Events Rain , Thunderstorm    
T = Trace of Precipitation, MM = Missing Value Source: NWS Daily Summary

Daily Weather History Graph

Daily Weather History Graph

Search for Another Location

Airport:

Trip Planner

Search our weather history database for the weather conditions in past years. The results will help you decide how hot, cold, wet, or windy it might be!

Date:

Astronomy

Jul. 21, 2013 Rise Set
Actual Time 6:09 AM CDT 9:06 PM CDT
Civil Twilight 5:35 AM CDT 9:40 PM CDT
Nautical Twilight 4:52 AM CDT 10:23 PM CDT
Astronomical Twilight 4:01 AM CDT 11:14 PM CDT
Moon 8:04 PM CDT (7/21) 4:58 AM CDT (7/21)
Length of Visible Light 16h 04m
Length of Day
14h 56m
Waxing Gibbous, 98% of the Moon is Illuminated
Jul 21
Waxing Gibbous
Jul 22
Full
Jul 29
Last Quarter
Aug 6
New
Aug 14
First Quarter

Hourly Weather History & Observations

Time (CDT) Temp. Heat Index Dew Point Humidity Pressure Visibility Wind Dir Wind Speed Gust Speed Precip Events Conditions
12:04 AM 68.0 °F - 64.4 °F 88% 29.92 in 10.0 mi SSE 17.3 mph - 0.01 in Rain Light Rain
12:31 AM 66.2 °F - 60.8 °F 83% 29.97 in 10.0 mi SSW 19.6 mph 25.3 mph 0.02 in Rain , Thunderstorm Light Rain
12:50 AM 66.2 °F - 62.6 °F 88% 29.92 in 10.0 mi SSE 16.1 mph - 0.03 in Rain Light Rain
12:53 AM 66.9 °F - 62.1 °F 84% 29.89 in 10.0 mi South 15.0 mph - 0.03 in Rain Light Rain
1:53 AM 66.0 °F - 61.0 °F 84% 29.87 in 10.0 mi NW 10.4 mph - 0.01 in   Clear
2:53 AM 66.9 °F - 59.0 °F 76% 29.87 in 10.0 mi North 3.5 mph - N/A   Clear
3:53 AM 63.0 °F - 60.1 °F 90% 29.86 in 10.0 mi West 3.5 mph - N/A   Clear
4:53 AM 61.0 °F - 57.9 °F 90% 29.86 in 10.0 mi Calm Calm - N/A   Clear
5:53 AM 63.0 °F - 59.0 °F 87% 29.87 in 10.0 mi Calm Calm - N/A   Clear
6:53 AM 63.0 °F - 60.1 °F 90% 29.86 in 10.0 mi Calm Calm - N/A   Clear
7:53 AM 66.0 °F - 60.1 °F 81% 29.87 in 10.0 mi Calm Calm - N/A   Clear
8:53 AM 68.0 °F - 63.0 °F 84% 29.87 in 10.0 mi Calm Calm - N/A   Clear
9:53 AM 72.0 °F - 63.0 °F 73% 29.87 in 10.0 mi SSE 5.8 mph - N/A   Clear
10:53 AM 75.0 °F - 63.0 °F 66% 29.85 in 10.0 mi SE 6.9 mph - N/A   Clear
11:53 AM 77.0 °F - 63.0 °F 62% 29.84 in 10.0 mi SE 8.1 mph - N/A   Clear
12:53 PM 79.0 °F - 64.9 °F 62% 29.83 in 10.0 mi SSE 10.4 mph - N/A   Clear
1:53 PM 80.1 °F 82.1 °F 66.0 °F 62% 29.81 in 10.0 mi SSE 10.4 mph - N/A   Clear
2:53 PM 82.0 °F 84.5 °F 66.9 °F 60% 29.80 in 10.0 mi SSE 8.1 mph - N/A   Clear
3:53 PM 82.0 °F 84.5 °F 66.9 °F 60% 29.78 in 10.0 mi SE 5.8 mph - N/A   Clear
4:53 PM 82.9 °F 85.8 °F 68.0 °F 60% 29.78 in 10.0 mi SSE 6.9 mph - N/A   Partly Cloudy
5:53 PM 82.9 °F 85.4 °F 66.9 °F 58% 29.77 in 10.0 mi SW 5.8 mph - N/A   Clear
6:53 PM 82.9 °F 86.5 °F 69.1 °F 63% 29.74 in 10.0 mi South 8.1 mph - N/A   Clear
7:53 PM 81.0 °F 84.1 °F 69.1 °F 67% 29.75 in 10.0 mi SSE 4.6 mph - N/A   Clear
8:53 PM 77.0 °F - 69.1 °F 76% 29.75 in 10.0 mi SSE 4.6 mph - N/A   Clear
9:53 PM 73.9 °F - 68.0 °F 82% 29.76 in 10.0 mi SSE 5.8 mph - N/A   Clear
10:53 PM 73.0 °F - 68.0 °F 84% 29.75 in 10.0 mi SSE 4.6 mph - N/A   Clear
11:53 PM 72.0 °F - 66.0 °F 81% 29.74 in 10.0 mi SSE 8.1 mph - N/A   Clear